TimeCST,TemperatureF,Dew PointF,Humidity,Sea Level PressureIn,VisibilityMPH,Wind Direction,Wind SpeedMPH,Gust SpeedMPH,PrecipitationIn,Events,Conditions,WindDirDegrees,DateUTC
12:55 AM,31.3,29.7,94,30.04,10.0,NNE,3.5,-,N/A,,Clear,30,2013-02-14 06:55:00
1:55 AM,30.0,28.4,94,30.04,10.0,NNE,5.8,-,N/A,,Clear,20,2013-02-14 07:55:00
2:55 AM,29.7,27.7,92,30.02,10.0,NNW,3.5,-,N/A,,Clear,330,2013-02-14 08:55:00
3:55 AM,31.6,28.9,90,30.01,10.0,North,3.5,-,N/A,,Clear,10,2013-02-14 09:55:00
4:55 AM,29.7,26.4,88,30.01,10.0,NNW,4.6,-,N/A,,Clear,330,2013-02-14 10:55:00
5:55 AM,33.8,28.8,82,30.01,10.0,NW,8.1,-,N/A,,Clear,320,2013-02-14 11:55:00
6:55 AM,27.9,26.4,94,30.04,10.0,North,4.6,-,N/A,,Clear,10,2013-02-14 12:55:00
7:55 AM,28.9,27.5,94,30.07,10.0,Calm,Calm,-,N/A,,Clear,0,2013-02-14 13:55:00
8:55 AM,35.8,32.4,87,30.10,10.0,NNE,11.5,-,N/A,,Clear,30,2013-02-14 14:55:00
9:55 AM,43.9,35.1,71,30.09,10.0,NE,6.9,-,N/A,,Clear,40,2013-02-14 15:55:00
10:55 AM,50.9,34.7,54,30.09,10.0,NNE,8.1,-,N/A,,Clear,30,2013-02-14 16:55:00
11:55 AM,54.1,37.0,52,30.07,10.0,NNE,11.5,-,N/A,,Clear,30,2013-02-14 17:55:00
12:55 PM,58.5,35.6,42,30.04,10.0,NE,13.8,-,N/A,,Clear,50,2013-02-14 18:55:00
1:55 PM,60.6,35.1,38,30.01,10.0,NE,11.5,-,N/A,,Clear,50,2013-02-14 19:55:00
2:55 PM,62.6,34.2,35,29.99,10.0,NE,12.7,-,N/A,,Clear,50,2013-02-14 20:55:00
3:55 PM,62.8,34.7,35,29.99,10.0,NNE,12.7,-,N/A,,Clear,20,2013-02-14 21:55:00
4:55 PM,60.6,36.3,40,30.02,7.0,NNE,18.4,-,N/A,,Clear,30,2013-02-14 22:55:00
5:55 PM,55.4,38.1,52,30.04,10.0,NNE,15.0,-,N/A,,Clear,30,2013-02-14 23:55:00
6:55 PM,49.8,39.7,68,30.08,10.0,NNE,13.8,-,N/A,,Clear,30,2013-02-15 00:55:00
7:55 PM,48.0,38.8,71,30.11,10.0,NNE,21.9,-,N/A,,Clear,30,2013-02-15 01:55:00
8:55 PM,48.0,36.5,64,30.13,10.0,NNE,26.5,-,N/A,,Mostly Cloudy,30,2013-02-15 02:55:00
9:55 PM,47.5,35.8,64,30.15,10.0,NNE,26.5,-,N/A,,Mostly Cloudy,20,2013-02-15 03:55:00
10:55 PM,46.6,34.3,62,30.18,10.0,NNE,28.8,39.1,N/A,,Mostly Cloudy,20,2013-02-15 04:55:00
11:55 PM,43.9,35.8,73,30.22,10.0,North,20.7,-,N/A,,Clear,10,2013-02-15 05:55:00